Wind_Speed
8 7 6 6 6 6 5 4 3 3 2 2 1 1 1 3 4 6 6 6 7 7 7 7 7 7 7 7 7 7 7 8 8 8 8 8 7 7 7 7 7 8 8 8 8 9 9 9 10
7 8 7 6 6 5 5 4 3 3 3 3 2 2 3 4 5 6 7 7 8 8 9 9 9 9 9 9 9 9 9 8 8 8 8 8 8 8 7 7 7 7 7 7 8 8 8 8 8
7 7 7 6 6 5 5 4 3 3 3 4 4 4 4 5 6 8 8 8 8 9 10 11 11 11 11 11 10 10 10 10 10 9 9 9 9 8 8 7 7 7 7 7 7 7 7 7 7
6 6 6 7 6 6 6 6 6 6 5 5 6 6 7 7 8 9 9 10 9 10 11 13 13 13 13 13 13 12 12 12 11 11 10 10 9 9 9 8 7 7 7 6 6 7 7 7 7
7 7 7 7 7 7 8 8 8 8 8 8 8 9 9 10 10 11 11 11 11 12 13 13 13 14 15 15 15 15 15 14 14 13 12 12 11 11 10 9 9 8 7 7 7 7 7 7 7
7 7 8 8 8 8 10 10 10 10 10 11 11 11 12 13 13 13 13 14 15 15 15 14 14 14 15 16 18 17 16 16 16 15 14 14 14 13 12 12 11 10 9 8 7 7 7 7 7
8 8 8 9 9 10 11 11 11 11 12 13 14 15 15 16 17 17 16 17 18 18 18 16 15 15 16 17 18 19 18 18 18 18 17 17 17 16 15 14 14 12 11 10 9 8 8 8 7
9 9 10 10 11 12 13 13 14 15 16 17 17 18 19 20 21 22 21 21 21 21 21 21 20 19 18 18 19 21 21 20 20 20 20 19 18 18 18 17 16 15 14 12 11 10 10 9 8
10 11 12 12 13 14 15 16 17 17 18 19 20 22 23 24 25 26 26 26 26 25 26 26 25 25 24 23 22 22 22 22 21 21 21 21 20 20 20 20 19 18 16 15 14 13 12 11 10
12 13 14 15 15 16 17 18 19 20 21 22 24 25 26 27 28 29 29 29 30 30 30 31 31 30 29 28 27 26 26 25 24 23 23 23 22 22 21 21 21 21 19 18 16 15 14 13 12
14 14 15 17 17 18 19 20 21 23 24 25 26 27 28 29 29 30 31 32 32 33 34 34 33 33 33 33 32 31 30 29 28 27 25 24 24 23 23 23 23 23 22 21 19 18 17 16 14
15 16 17 18 19 20 21 22 23 25 26 28 29 30 30 30 31 31 32 33 34 35 36 36 36 36 36 35 35 35 34 33 32 31 30 29 28 26 24 25 23 24 24 23 22 21 20 18 17
16 17 18 19 20 21 22 24 25 27 28 29 30 30 30 30 30 30 30 32 33 34 35 35 35 36 37 37 37 36 37 36 36 36 34 33 32 31 28 26 26 26 27 26 24 23 23 22 20
16 17 19 20 20 22 23 24 26 27 28 28 28 28 28 27 27 28 28 28 29 30 31 32 33 34 34 35 36 37 37 38 38 38 38 37 36 35 34 32 30 29 28 29 28 27 25 24 23
17 18 19 20 21 22 24 24 25 26 27 27 27 26 25 25 25 25 25 26 26 27 28 29 29 30 31 32 33 35 36 37 38 38 39 38 38 38 37 36 35 33 31 30 30 29 28 27 26
18 19 20 20 22 23 24 24 24 24 24 24 24 23 23 23 23 24 24 24 24 24 25 25 26 26 27 28 30 31 33 34 36 37 37 38 38 39 38 38 37 36 35 33 32 31 30 29 28
18 18 20 20 21 21 21 21 22 22 22 22 21 21 21 21 22 22 22 22 22 23 23 23 24 24 24 24 25 27 28 30 32 33 35 37 38 38 39 38 39 39 38 36 35 33 32 30 30
18 18 19 20 20 20 19 19 20 20 19 19 19 20 20 21 21 20 20 21 21 21 21 20 20 20 20 20 21 23 25 27 28 30 32 34 35 37 37 38 39 39 39 37 37 36 34 32 31
17 17 18 18 18 18 18 18 17 17 16 17 18 19 19 20 20 20 20 20 20 20 20 18 17 17 17 17 18 19 21 23 25 27 29 30 32 34 36 37 39 40 40 40 39 38 38 35 33
15 16 16 16 16 15 15 15 14 14 15 17 17 17 18 19 20 20 20 20 20 20 18 17 15 15 15 15 16 17 18 19 20 22 25 28 30 32 33 35 37 40 41 41 41 40 39 38 37
13 14 14 14 13 12 12 12 12 13 14 15 16 17 18 19 19 20 20 20 19 18 17 16 15 15 14 14 15 15 16 16 17 19 21 23 26 29 31 33 35 37 39 40 41 42 41 40 39
12 11 11 10 10 10 10 10 12 13 14 15 16 16 18 18 18 19 20 19 18 18 18 17 16 15 14 14 14 14 14 14 15 17 18 20 22 26 29 31 33 35 37 39 41 42 43 43 41
9 8 8 7 7 7 8 10 11 13 14 14 16 16 17 17 18 19 19 19 18 18 18 18 16 15 15 14 13 12 13 13 13 14 16 18 20 23 26 29 31 33 35 37 40 41 42 43 43
6 5 4 5 6 7 8 10 11 12 13 14 15 17 17 18 18 19 19 19 19 19 19 19 18 17 16 15 14 13 13 13 13 13 14 15 17 20 23 26 28 30 32 34 37 39 40 42 44
3 2 3 5 6 7 8 10 11 12 13 14 15 17 17 18 18 19 19 20 20 19 20 19 19 18 17 17 16 15 14 13 12 12 12 13 15 17 19 22 25 27 29 31 34 36 38 40 42
1 2 3 4 5 7 8 10 11 12 13 14 15 16 17 18 18 18 19 20 20 20 21 20 20 20 19 19 18 17 16 15 14 13 13 13 14 15 17 20 22 25 27 29 31 33 35 38 41
3 4 4 5 5 7 8 9 10 12 13 14 15 16 17 17 18 18 19 19 20 20 21 22 21 21 21 21 20 19 19 17 15 14 12 12 12 14 16 18 20 23 25 27 29 31 34 36 39
5 5 5 5 5 7 8 10 11 12 13 14 15 16 17 17 18 18 19 19 19 20 21 22 23 23 23 22 22 21 20 19 18 16 14 13 12 12 14 16 18 20 22 25 27 29 32 34 37
5 5 5 5 5 6 7 9 10 11 12 14 15 16 17 18 18 19 19 19 19 20 20 22 23 24 23 23 23 23 22 21 20 18 16 15 13 12 12 13 14 16 18 21 24 26 28 31 33
6 5 5 5 5 6 7 8 9 11 12 13 14 16 17 18 18 19 19 19 19 20 20 21 22 23 24 24 24 24 24 24 22 20 19 18 16 14 13 13 12 13 14 16 19 21 24 27 29
Wind_Direction
32 31 33 40 33 34 25 16 19 8 0 357 345 342 317 296 293 283 282 270 259 249 239 231 222 217 215 212 209 208 205 200 197 195 193 191 191 193 197 203 210 215 219 223 228 231 235 238 243
25 24 26 25 21 17 7 360 3 353 342 342 335 328 317 307 301 296 291 280 272 263 254 247 238 231 228 226 222 219 217 212 209 208 206 203 201 200 200 202 206 210 215 219 225 229 234 236 240
6 11 15 15 15 1 351 348 333 328 325 328 322 316 313 309 304 302 301 293 281 274 264 257 249 240 236 235 234 230 226 223 221 218 215 212 210 208 208 208 209 211 214 217 221 226 230 232 235
354 1 1 360 354 346 337 329 325 322 313 316 319 315 312 308 305 304 305 296 291 283 275 266 258 250 241 237 237 236 233 232 229 226 224 221 218 217 216 215 216 216 216 217 221 225 227 228 231
336 341 342 343 335 331 329 321 318 312 311 310 312 310 307 306 303 300 301 301 296 294 291 284 267 258 251 246 241 240 238 235 233 230 229 228 226 224 223 222 221 221 220 220 222 226 228 230 232
322 327 330 328 322 318 320 316 310 309 308 308 309 304 302 302 299 295 295 296 292 290 292 291 277 264 257 255 250 246 244 240 238 236 235 233 232 230 229 227 226 226 226 225 225 227 230 232 233
312 317 318 319 316 313 314 313 311 309 307 305 304 300 298 297 296 293 292 291 289 288 288 285 284 276 265 258 254 251 248 247 244 241 239 237 236 235 233 232 230 229 229 229 229 230 232 233 234
304 309 309 309 309 308 308 307 306 305 303 302 300 298 296 295 294 292 290 285 283 281 280 280 279 277 273 270 266 260 253 250 248 244 242 242 241 239 237 236 233 232 231 231 232 233 235 236 236
299 303 303 304 304 303 303 303 303 302 300 300 298 295 294 293 292 290 287 284 280 278 275 274 273 272 271 271 270 269 262 256 253 250 245 244 245 244 241 239 236 234 234 232 234 235 236 237 238
294 297 300 303 303 302 302 302 302 301 301 300 298 296 294 292 290 288 285 283 280 277 274 273 271 269 268 266 266 264 262 260 258 255 250 246 245 245 241 240 239 237 236 235 235 236 237 238 238
291 294 298 301 303 303 303 303 303 302 302 301 299 297 295 293 290 287 284 282 280 277 275 272 271 269 267 266 265 264 262 260 258 255 252 249 248 247 244 240 240 240 239 238 237 237 238 239 239
290 295 298 301 303 304 304 305 304 304 303 302 300 299 297 294 291 288 285 283 280 278 276 274 272 270 269 267 265 263 262 260 257 254 255 252 250 250 251 242 240 240 239 239 240 239 239 239 240
290 295 299 301 304 304 305 305 304 303 303 303 303 303 302 300 296 293 289 286 283 281 279 277 274 271 269 267 265 264 262 261 259 258 256 256 253 252 252 248 243 241 240 239 240 242 241 241 240
291 295 299 302 304 305 306 306 305 305 305 306 307 307 306 304 302 299 295 292 288 285 282 279 276 274 271 268 266 263 261 259 258 257 257 256 255 252 251 250 246 246 245 241 240 241 241 241 240
291 296 299 303 305 306 307 307 306 307 308 310 311 311 310 309 307 305 302 299 295 292 289 286 282 278 274 270 266 263 261 259 256 256 256 255 254 252 250 248 247 246 247 244 242 242 241 241 240
291 296 299 303 305 308 309 310 310 312 313 314 315 315 315 314 313 312 309 306 303 299 296 292 288 283 278 274 269 265 262 260 258 256 255 253 252 251 249 247 246 246 246 245 243 241 241 242 242
291 296 300 303 307 310 312 312 315 316 317 319 320 322 323 322 321 319 318 315 311 308 303 298 292 288 283 278 273 268 264 261 259 257 254 253 251 250 248 247 246 245 244 244 242 241 242 244 242
291 296 300 305 310 313 315 317 319 321 324 327 329 330 330 330 330 328 326 323 320 318 314 307 300 294 288 283 278 272 267 263 260 258 255 252 250 248 247 245 244 244 243 242 242 241 241 242 241
290 297 302 308 313 316 320 322 326 329 333 335 336 336 337 338 337 336 333 330 328 325 321 316 310 303 296 290 285 278 272 267 264 260 256 252 249 248 246 245 243 242 242 242 242 241 240 240 241
292 299 305 311 316 320 325 330 334 338 341 342 342 342 342 342 342 341 340 337 335 333 330 324 319 315 308 300 292 285 280 273 267 263 258 253 250 247 245 245 244 242 241 240 240 240 240 239 239
294 302 309 316 322 328 332 338 342 347 350 350 348 347 346 346 346 346 346 346 345 346 344 340 332 325 319 311 303 296 289 279 272 267 262 256 251 248 246 246 244 243 242 242 241 240 239 239 239
296 305 312 321 330 337 345 350 353 356 356 355 355 354 353 354 354 355 355 354 354 355 354 349 343 337 330 322 315 308 302 291 281 275 267 260 255 251 248 247 246 245 244 243 242 241 240 240 239
296 307 320 334 345 353 360 2 2 2 1 2 2 3 4 4 3 3 4 3 3 2 1 359 357 353 347 341 334 324 314 305 296 286 275 266 260 255 252 249 248 247 247 245 244 244 241 240 238
297 315 342 2 9 13 11 11 10 9 9 10 12 13 13 11 10 10 9 9 9 9 9 9 8 6 2 359 352 343 331 320 308 297 286 275 267 260 255 252 250 249 248 246 245 245 243 241 239
301 355 30 32 27 24 20 19 17 16 17 18 18 17 17 16 15 14 14 14 15 16 15 15 14 13 10 7 3 357 349 339 328 315 302 289 277 267 261 256 253 251 249 248 246 245 243 241 240
121 78 63 55 39 30 26 23 22 22 22 22 21 20 19 18 18 18 18 18 20 20 20 18 18 16 15 12 9 5 359 352 343 332 318 303 288 277 269 263 258 255 253 250 248 246 244 241 239
122 98 80 70 53 40 33 31 29 26 26 25 23 22 21 21 22 21 21 22 24 24 24 23 22 21 20 18 16 13 9 5 357 347 334 320 304 289 279 271 264 260 256 253 250 247 245 242 241
122 104 89 74 57 45 38 33 30 31 31 29 27 27 26 26 25 24 24 25 25 26 25 24 23 22 22 21 19 17 14 11 6 359 350 338 324 309 294 282 273 265 259 255 251 248 245 244 241
124 107 90 75 58 50 40 36 35 35 33 31 29 29 29 29 28 27 26 26 26 25 24 24 24 25 24 22 20 19 15 12 9 5 360 352 339 326 314 299 285 273 266 260 255 250 246 244 241
123 108 90 76 62 49 41 38 35 35 32 30 30 29 29 29 29 29 28 28 27 25 23 23 24 24 24 23 21 20 19 17 14 11 8 3 355 344 331 318 303 289 278 268 257 250 245 243 240
Height
5931 5929 5929 5929 5929 5929 5927 5926 5925 5924 5923 5921 5920 5919 5918 5918 5918 5919 5915 5913 5913 5912 5911 5911 5910 5910 5910 5910 5909 5909 5909 5908 5908 5907 5907 5906 5906 5906 5905 5905 5905 5905 5905 5905 5906 5906 5906 5906 5906
5931 5930 5930 5930 5929 5928 5928 5926 5925 5924 5922 5921 5920 5919 5918 5917 5916 5915 5913 5912 5911 5911 5910 5909 5908 5908 5908 5908 5908 5908 5907 5907 5907 5906 5906 5906 5905 5905 5904 5904 5904 5904 5904 5904 5904 5904 5904 5904 5904
5932 5931 5931 5930 5929 5929 5928 5926 5924 5923 5922 5920 5919 5918 5917 5916 5914 5913 5912 5910 5909 5909 5908 5907 5906 5906 5906 5906 5906 5906 5906 5905 5905 5905 5905 5904 5904 5904 5903 5903 5903 5903 5903 5903 5903 5903 5903 5903 5903
5932 5932 5932 5931 5929 5928 5927 5925 5923 5922 5921 5920 5919 5917 5916 5914 5913 5911 5910 5908 5907 5906 5905 5904 5903 5903 5903 5903 5903 5903 5903 5903 5903 5903 5903 5903 5902 5902 5902 5902 5902 5902 5902 5902 5902 5902 5901 5901 5901
5932 5932 5931 5930 5928 5927 5925 5924 5922 5921 5920 5918 5917 5916 5914 5913 5911 5909 5908 5906 5905 5903 5902 5901 5900 5900 5900 5900 5900 5899 5900 5900 5900 5900 5900 5900 5900 5900 5900 5900 5900 5900 5900 5900 5900 5900 5900 5900 5900
5932 5931 5931 5929 5927 5926 5924 5923 5921 5919 5918 5917 5915 5914 5912 5910 5909 5907 5905 5904 5902 5901 5899 5898 5897 5896 5896 5896 5896 5896 5896 5896 5896 5896 5897 5897 5897 5898 5898 5898 5898 5898 5899 5899 5899 5899 5899 5899 5899
5931 5930 5929 5928 5926 5925 5923 5921 5919 5918 5916 5915 5913 5911 5909 5908 5906 5904 5903 5901 5899 5898 5896 5895 5894 5892 5892 5892 5891 5891 5891 5891 5892 5892 5893 5893 5894 5894 5895 5895 5896 5896 5896 5897 5897 5897 5897 5897 5897
5929 5929 5927 5926 5925 5923 5921 5919 5917 5915 5914 5912 5910 5908 5906 5905 5902 5900 5899 5897 5896 5894 5893 5891 5890 5889 5888 5888 5888 5887 5887 5887 5887 5887 5888 5889 5889 5890 5891 5891 5892 5893 5893 5894 5894 5895 5895 5895 5896
5927 5928 5925 5924 5923 5921 5918 5916 5915 5912 5910 5909 5907 5905 5902 5900 5898 5896 5894 5892 5891 5889 5888 5887 5886 5884 5884 5883 5883 5882 5882 5882 5882 5882 5882 5883 5884 5885 5886 5887 5888 5889 5890 5891 5891 5892 5893 5893 5894
5925 5925 5923 5922 5920 5918 5915 5913 5911 5909 5907 5905 5903 5900 5898 5896 5893 5891 5889 5887 5885 5883 5882 5880 5880 5879 5878 5877 5877 5877 5877 5877 5877 5877 5877 5878 5879 5880 5881 5883 5884 5885 5886 5887 5888 5889 5890 5890 5891
5922 5922 5920 5918 5916 5914 5912 5910 5907 5905 5903 5900 5898 5895 5893 5890 5887 5885 5882 5880 5878 5876 5875 5873 5872 5871 5871 5870 5870 5870 5870 5871 5871 5871 5872 5873 5874 5875 5876 5877 5879 5880 5881 5883 5884 5885 5886 5887 5888
5919 5918 5917 5915 5913 5911 5909 5906 5903 5901 5898 5895 5892 5889 5886 5883 5881 5878 5875 5872 5870 5868 5866 5865 5864 5863 5862 5862 5862 5862 5863 5863 5864 5865 5866 5866 5867 5869 5870 5871 5873 5875 5876 5878 5879 5881 5882 5883 5885
5917 5915 5914 5912 5910 5907 5905 5902 5899 5896 5893 5890 5887 5883 5880 5877 5873 5870 5867 5865 5862 5860 5858 5856 5855 5854 5854 5853 5853 5854 5855 5855 5856 5858 5858 5860 5861 5863 5864 5866 5867 5869 5871 5873 5874 5876 5878 5879 5880
5914 5912 5910 5909 5907 5904 5902 5899 5895 5892 5888 5885 5881 5878 5874 5870 5867 5863 5860 5857 5855 5852 5850 5848 5847 5845 5845 5844 5844 5845 5845 5847 5848 5849 5850 5852 5853 5855 5858 5860 5861 5863 5865 5867 5869 5871 5873 5874 5876
5911 5909 5908 5905 5903 5901 5898 5895 5891 5887 5884 5880 5876 5873 5869 5865 5861 5858 5854 5851 5848 5845 5842 5840 5839 5837 5836 5836 5835 5836 5836 5837 5838 5840 5841 5843 5845 5847 5850 5853 5855 5856 5858 5860 5862 5864 5866 5869 5871
5908 5907 5905 5903 5900 5897 5896 5892 5887 5883 5880 5876 5872 5868 5864 5861 5857 5853 5849 5846 5842 5839 5836 5834 5831 5829 5828 5827 5827 5827 5828 5828 5829 5831 5832 5834 5836 5838 5841 5844 5847 5849 5851 5854 5856 5858 5860 5862 5865
5905 5904 5902 5900 5897 5894 5891 5887 5883 5879 5876 5872 5868 5865 5861 5857 5853 5849 5845 5841 5837 5834 5831 5828 5825 5823 5821 5820 5819 5819 5819 5820 5821 5822 5823 5825 5827 5829 5832 5835 5838 5841 5843 5846 5849 5851 5853 5856 5858
5903 5901 5899 5896 5893 5890 5887 5884 5880 5876 5873 5869 5865 5862 5857 5853 5849 5845 5841 5837 5833 5829 5826 5822 5820 5817 5815 5814 5813 5813 5813 5813 5813 5814 5815 5816 5818 5820 5823 5826 5829 5832 5835 5838 5841 5844 5846 5849 5852
5899 5898 5896 5893 5890 5887 5884 5881 5877 5874 5870 5867 5863 5859 5855 5851 5847 5842 5838 5834 5830 5826 5822 5818 5815 5813 5811 5809 5808 5807 5806 5806 5806 5806 5807 5808 5810 5812 5814 5817 5820 5823 5826 5829 5832 5836 5838 5841 5845
5896 5895 5892 5890 5887 5884 5881 5878 5875 5871 5868 5865 5861 5857 5853 5849 5845 5840 5836 5832 5827 5823 5819 5815 5812 5809 5807 5805 5803 5802 5801 5800 5799 5799 5799 5800 5802 5804 5806 5808 5811 5814 5817 5820 5823 5827 5830 5834 5837
5893 5892 5890 5887 5885 5882 5879 5877 5874 5870 5867 5863 5860 5856 5852 5848 5843 5839 5834 5830 5825 5821 5817 5812 5809 5806 5804 5802 5800 5798 5796 5795 5794 5793 5793 5794 5795 5796 5798 5800 5802 5805 5808 5811 5814 5818 5822 5825 5828
5890 5889 5887 5885 5883 5880 5878 5876 5873 5869 5866 5862 5859 5855 5851 5847 5843 5838 5833 5829 5824 5820 5816 5811 5807 5804 5801 5799 5796 5794 5792 5791 5789 5788 5788 5788 5789 5790 5791 5792 5794 5796 5799 5802 5805 5808 5812 5816 5820
5888 5887 5885 5883 5881 5879 5877 5875 5873 5869 5865 5862 5858 5854 5850 5846 5842 5838 5833 5829 5824 5820 5815 5811 5807 5803 5800 5797 5794 5792 5789 5787 5785 5784 5783 5783 5783 5783 5784 5785 5787 5789 5791 5793 5796 5799 5803 5807 5811
5886 5885 5884 5882 5881 5879 5877 5875 5872 5868 5865 5862 5858 5854 5850 5846 5842 5838 5834 5829 5825 5820 5816 5811 5807 5803 5799 5796 5792 5789 5787 5784 5782 5780 5779 5778 5778 5778 5778 5779 5780 5781 5783 5785 5787 5790 5793 5797 5801
5885 5884 5884 5882 5881 5879 5877 5874 5872 5868 5865 5862 5858 5855 5851 5847 5843 5839 5834 5830 5825 5821 5816 5812 5808 5804 5800 5796 5792 5788 5785 5782 5779 5777 5775 5774 5773 5772 5772 5772 5773 5774 5775 5777 5779 5781 5784 5787 5791
5883 5883 5883 5882 5881 5879 5876 5874 5872 5868 5865 5862 5859 5855 5852 5848 5844 5839 5835 5831 5826 5822 5818 5813 5809 5804 5800 5796 5792 5788 5784 5780 5777 5774 5772 5770 5768 5767 5767 5767 5767 5767 5768 5770 5771 5773 5775 5778 5782
5882 5882 5882 5881 5880 5879 5877 5875 5872 5869 5866 5863 5859 5856 5852 5849 5845 5841 5837 5832 5828 5824 5819 5815 5810 5806 5801 5797 5792 5788 5784 5780 5776 5773 5769 5767 5765 5763 5762 5761 5760 5761 5761 5762 5763 5764 5767 5769 5772
5882 5881 5881 5881 5880 5879 5877 5875 5873 5869 5867 5864 5860 5857 5853 5850 5846 5842 5838 5834 5830 5825 5821 5817 5812 5807 5803 5798 5793 5788 5784 5780 5776 5772 5768 5765 5762 5759 5757 5756 5755 5754 5754 5754 5755 5756 5758 5760 5763
5882 5882 5881 5880 5880 5879 5877 5878 5873 5870 5868 5865 5861 5858 5855 5851 5847 5843 5840 5836 5832 5827 5823 5819 5814 5809 5804 5800 5795 5790 5785 5780 5776 5771 5767 5763 5759 5756 5753 5751 5749 5748 5747 5747 5747 5748 5750 5752 5755
5881 5881 5881 5881 5880 5878 5877 5879 5873 5871 5868 5865 5862 5859 5856 5852 5849 5845 5841 5837 5833 5829 5825 5821 5816 5812 5807 5802 5797 5792 5787 5781 5776 5771 5767 5762 5758 5754 5750 5747 5745 5743 5742 5741 5741 5741 5743 5745 5748